CW2057 Weather Reports


Display with metric or nautical units.
time (UTC)temp
F
wind
direction
speed
MPH
gust
MPH
rain 1hr
in
rain 24hr
in
rain mn
in
humidity
%
barometer
mb
20260502204114 59 299 1.0 5.0 0.00 0.00 0.00 37 1012.0
20260502203623 59 359 2.0 5.0 0.00 0.00 0.00 39 1012.1
20260502203129 59 12 0.0 3.0 0.00 0.00 0.00 40 1012.1
20260502202619 59 20 1.0 6.0 0.00 0.00 0.00 40 1012.1
20260502202128 59 17 1.0 6.0 0.00 0.00 0.00 42 1012.1
20260502201616 59 44 1.0 5.0 0.00 0.00 0.00 41 1012.1
20260502201125 59 16 2.0 5.0 0.00 0.00 0.00 38 1012.2
20260502200615 60 4 1.0 10.0 0.00 0.00 0.00 36 1012.2
20260502200124 61 92 2.0 10.0 0.00 0.00 0.00 35 1012.1
20260502195631 61 276 2.0 10.0 0.00 0.00 0.00 37 1012.2
20260502195121 62 160 2.0 9.0 0.00 0.00 0.00 37 1012.2
20260502194626 62 49 3.0 9.0 0.00 0.00 0.00 38 1012.1
20260502194114 62 165 3.0 9.0 0.00 0.00 0.00 35 1012.3
20260502193643 62 30 2.0 9.0 0.00 0.00 0.00 37 1012.4
20260502193130 62 165 2.0 5.0 0.00 0.00 0.00 41 1012.5
20260502192618 62 108 2.0 6.0 0.00 0.00 0.00 43 1012.5
20260502192127 61 6 2.0 5.0 0.00 0.00 0.00 42 1012.6
20260502191635 62 34 1.0 6.0 0.00 0.00 0.00 40 1012.6
20260502191122 61 259 2.0 6.0 0.00 0.00 0.00 37 1012.8
20260502190652 60 10 1.0 8.0 0.00 0.00 0.00 44 1012.8
20260502190120 61 313 2.0 8.0 0.00 0.00 0.00 41 1012.9
20260502185628 61 273 3.0 5.0 0.00 0.00 0.00 39 1012.9
20260502185137 61 303 3.0 7.0 0.00 0.00 0.00 38 1013.2
20260502184626 60 309 3.0 7.0 0.00 0.00 0.00 38 1013.3
20260502184114 59 338 1.0 5.0 0.00 0.00 0.00 41 1013.3
20260502183623 59 28 0.0 3.0 0.00 0.00 0.00 41 1013.4
20260502183148 59 18 1.0 7.0 0.00 0.00 0.00 39 1013.5
20260502182617 60 55 2.0 7.0 0.00 0.00 0.00 40 1013.5
20260502182125 60 275 1.0 4.0 0.00 0.00 0.00 40 1013.6
20260502181633 60 345 0.0 3.0 0.00 0.00 0.00 40 1013.7
20260502181121 58 124 0.0 5.0 0.00 0.00 0.00 41 1013.7
20260502180630 59 170 0.0 5.0 0.00 0.00 0.00 43 1013.8
20260502180119 58 14 2.0 5.0 0.00 0.00 0.00 40 1013.9
20260502170114 58 355 1.0 4.0 0.00 0.00 0.00 44 1014.4
20260502164128 56 3 1.0 4.0 0.00 0.00 0.00 48 1014.5
20260502163616 57 357 1.0 5.0 0.00 0.00 0.00 49 1014.6
20260502163124 56 30 2.0 5.0 0.00 0.00 0.00 49 1014.5
20260502162614 56 112 1.0 4.0 0.00 0.00 0.00 45 1014.6
20260502162122 57 86 1.0 4.0 0.00 0.00 0.00 44 1014.7
20260502161631 59 354 0.0 4.0 0.00 0.00 0.00 46 1014.8
20260502161119 58 324 0.0 4.0 0.00 0.00 0.00 46 1014.6
20260502160629 57 339 1.0 4.0 0.00 0.00 0.00 51 1014.6
20260502160118 56 14 0.0 4.0 0.00 0.00 0.00 49 1014.8
20260502151631 56 48 1.0 6.0 0.00 0.00 0.00 46 1015.0
20260502151120 56 350 1.0 4.0 0.00 0.00 0.00 50 1015.0
20260502150628 55 310 1.0 4.0 0.00 0.00 0.00 50 1014.9
20260502150117 55 70 1.0 4.0 0.00 0.00 0.00 50 1014.8
20260502140117 52 329 1.0 6.0 0.00 0.00 0.00 57 1014.5
20260502130616 50 8 1.0 3.0 0.00 0.00 0.00 65 1014.9
20260502130141 49 10 0.0 4.0 0.00 0.00 0.00 67 1014.9
20260502123626 48 36 2.0 7.0 0.00 0.00 0.00 67 1015.0
20260502123114 48 22 3.0 5.0 0.00 0.00 0.00 67 1015.0
20260502122643 49 11 2.0 4.0 0.00 0.00 0.00 68 1014.9
20260502122132 49 32 0.0 4.0 0.00 0.00 0.00 68 1014.9
20260502121620 49 22 2.0 5.0 0.00 0.00 0.00 69 1014.9
20260502121129 48 351 0.0 5.0 0.00 0.00 0.00 70 1014.9
20260502120617 47 3 1.0 6.0 0.00 0.00 0.00 70 1014.8
20260502120127 48 354 1.0 6.0 0.00 0.00 0.00 70 1014.7
20260502115614 48 37 0.0 10.0 0.00 0.00 0.00 70 1014.8
20260502115122 48 224 3.0 10.0 0.00 0.00 0.00 70 1014.9
20260502114631 48 16 0.0 4.0 0.00 0.00 0.00 71 1014.9
20260502114235 47 2 0.0 5.0 0.00 0.00 0.00 70 1015.0
20260502113631 47 345 1.0 6.0 0.00 0.00 0.00 71 1015.0
20260502113135 47 25 1.0 6.0 0.00 0.00 0.00 70 1014.8
20260502112625 47 75 0.0 4.0 0.00 0.00 0.00 70 1014.7
20260502112114 48 17 1.0 4.0 0.00 0.00 0.00 70 1014.7
20260502111621 47 336 1.0 4.0 0.00 0.00 0.00 70 1014.8
20260502111130 47 356 0.0 3.0 0.00 0.00 0.00 70 1014.6
20260502110619 47 356 0.0 3.0 0.00 0.00 0.00 70 1014.5
20260502110129 47 21 0.0 3.0 0.00 0.00 0.00 71 1014.4
20260502105619 47 26 1.0 3.0 0.00 0.00 0.00 70 1014.4
20260502105126 47 15 0.0 3.0 0.00 0.00 0.00 70 1014.4
20260502104616 47 327 1.0 3.0 0.00 0.00 0.00 69 1014.3
20260502104124 47 71 0.0 4.0 0.00 0.00 0.00 70 1014.4
20260502103614 47 1 0.0 4.0 0.00 0.00 0.00 70 1014.3
20260502103122 47 350 1.0 4.0 0.00 0.00 0.00 69 1014.3
20260502102633 47 1 0.0 6.0 0.00 0.00 0.00 69 1014.2
20260502102122 48 316 2.0 6.0 0.00 0.00 0.00 69 1014.3
20260502101631 48 338 1.0 5.0 0.00 0.00 0.00 69 1014.1
20260502101120 48 262 0.0 4.0 0.00 0.00 0.00 68 1014.0
20260502100628 48 7 1.0 4.0 0.00 0.00 0.00 68 1013.9
20260502100118 48 14 1.0 8.0 0.00 0.00 0.00 67 1013.8
20260502091121 49 13 1.0 6.0 0.00 0.00 0.00 67 1013.5
20260502090629 49 330 1.0 3.0 0.00 0.00 0.00 68 1013.5
20260502090118 50 359 0.0 3.0 0.00 0.00 0.00 68 1013.5
20260502071118 52 7 0.0 2.0 0.00 0.00 0.00 77 1012.9
20260502070625 52 7 0.0 2.0 0.00 0.00 0.00 77 1012.8
20260502070115 52 353 0.0 2.0 0.00 0.00 0.00 77 1012.7
20260502065622 52 349 0.0 0.0 0.00 0.00 0.00 77 1012.7
20260502065132 52 349 0.0 0.0 0.00 0.00 0.00 77 1012.8
20260502064637 53 345 0.0 0.0 0.00 0.00 0.00 76 1012.9
20260502064126 53 345 0.0 0.0 0.00 0.00 0.00 75 1012.9
20260502063635 53 345 0.0 0.0 0.00 0.00 0.00 75 1012.9
20260502063123 53 351 0.0 0.0 0.00 0.00 0.00 75 1013.1
20260502062651 53 351 0.0 0.0 0.00 0.00 0.00 75 1013.2
20260502062120 53 349 0.0 2.0 0.00 0.00 0.00 75 1013.1
20260502061628 53 6 0.0 6.0 0.00 0.00 0.00 74 1013.1
20260502061137 53 4 0.0 6.0 0.00 0.00 0.00 74 1013.3
20260502060645 53 348 1.0 6.0 0.00 0.00 0.00 75 1013.5
20260502060135 53 1 0.0 2.0 0.00 0.00 0.00 74 1013.4
20260502055642 54 1 0.0 2.0 0.00 0.00 0.00 73 1013.3
20260502055126 54 6 0.0 3.0 0.00 0.00 0.00 73 1013.3
20260502054615 54 6 0.0 3.0 0.00 0.00 0.00 73 1013.3
20260502054124 54 349 0.0 2.0 0.00 0.00 0.00 73 1013.3
20260502053654 54 3 0.0 2.0 0.00 0.00 0.00 72 1013.2
20260502053140 54 360 0.0 0.0 0.00 0.00 0.00 72 1013.4
20260502052648 54 360 0.0 0.0 0.00 0.00 0.00 72 1013.4
20260502052116 54 360 0.0 2.0 0.00 0.00 0.00 72 1013.4
20260502051625 54 360 0.0 2.0 0.00 0.00 0.00 72 1013.4
20260502051114 54 332 0.0 0.0 0.00 0.00 0.00 72 1013.4
20260502050621 54 332 0.0 0.0 0.00 0.00 0.00 72 1013.3
20260502050151 54 332 0.0 2.0 0.00 0.00 0.00 72 1013.3
20260502045620 55 332 0.0 5.0 0.00 0.00 0.00 71 1013.4
20260502045127 54 341 0.0 5.0 0.00 0.00 0.00 73 1013.3
20260502044616 54 347 0.0 1.0 0.00 0.00 0.00 75 1013.4
20260502044141 54 347 0.0 1.0 0.00 0.00 0.00 74 1013.3
20260502043649 55 358 0.0 0.0 0.00 0.00 0.00 75 1013.4
20260502043116 54 358 0.0 0.0 0.00 0.00 0.00 77 1013.3
20260502042625 54 358 0.0 0.0 0.00 0.00 0.00 77 1013.3
20260502042114 54 358 0.0 0.0 0.00 0.00 0.00 76 1013.2
20260502041622 54 358 0.0 0.0 0.00 0.00 0.00 76 1013.3
20260502041130 54 358 0.0 0.0 0.00 0.00 0.00 77 1013.3
20260502040620 54 358 0.0 0.0 0.00 0.00 0.00 76 1013.2
20260502040147 54 358 0.0 2.0 0.00 0.00 0.00 75 1013.1
20260502035615 55 358 1.0 2.0 0.00 0.00 0.00 72 1013.2
20260502035122 55 313 0.0 1.0 0.00 0.00 0.00 70 1013.2
20260502034632 56 313 0.0 1.0 0.00 0.00 0.00 69 1013.3
20260502034140 56 313 0.0 2.0 0.00 0.00 0.00 69 1013.2
20260502033629 56 313 0.0 2.0 0.00 0.00 0.00 68 1013.1
20260502033138 56 313 0.0 1.0 0.00 0.00 0.00 69 1013.1
20260502032620 55 313 0.0 0.0 0.00 0.00 0.00 69 1013.0
20260502032129 56 313 0.0 1.0 0.00 0.00 0.00 67 1012.8
20260502031617 56 313 0.0 1.0 0.00 0.00 0.00 67 1012.7
20260502031125 56 311 0.0 3.0 0.00 0.00 0.00 67 1012.6
20260502030616 56 312 0.0 3.0 0.00 0.00 0.00 67 1012.5
20260502030124 56 250 0.0 1.0 0.00 0.00 0.00 67 1012.4
20260502025632 56 180 0.0 1.0 0.00 0.00 0.00 66 1012.4
20260502025121 56 200 0.0 0.0 0.00 0.00 0.00 66 1012.4
20260502024630 56 203 0.0 0.0 0.00 0.00 0.00 66 1012.4
20260502024119 56 195 0.0 1.0 0.00 0.00 0.00 65 1012.5
20260502023627 56 250 0.0 3.0 0.00 0.00 0.00 65 1012.5
20260502023115 56 228 1.0 5.0 0.00 0.00 0.00 64 1012.5
20260502022625 56 205 0.0 5.0 0.00 0.00 0.00 64 1012.5
20260502022115 56 212 2.0 8.0 0.00 0.00 0.00 65 1012.5
20260502021623 56 189 3.0 8.0 0.00 0.00 0.00 64 1012.4
20260502021132 56 31 1.0 6.0 0.00 0.00 0.00 61 1012.5
20260502020622 57 220 1.0 4.0 0.00 0.00 0.00 60 1012.7
20260502020129 57 220 1.0 7.0 0.00 0.00 0.00 59 1012.5
20260502015618 57 286 1.0 5.0 0.00 0.00 0.00 58 1012.5
20260502015127 57 184 1.0 5.0 0.00 0.00 0.00 57 1012.4
20260502014617 57 204 1.0 3.0 0.00 0.00 0.00 57 1012.3
20260502014140 57 174 0.0 6.0 0.00 0.00 0.00 56 1012.3
20260502013629 57 190 2.0 6.0 0.00 0.00 0.00 55 1012.2
20260502013138 57 193 2.0 8.0 0.00 0.00 0.00 54 1012.1
20260502012627 58 180 4.0 8.0 0.00 0.00 0.00 53 1012.2
20260502012115 58 179 1.0 9.0 0.00 0.00 0.00 53 1012.2
20260502011623 58 249 1.0 5.0 0.00 0.00 0.00 53 1012.3
20260502011128 58 243 1.0 7.0 0.00 0.00 0.00 53 1012.2
20260502010618 58 215 3.0 7.0 0.00 0.00 0.00 52 1012.0
20260502010128 58 180 0.0 2.0 0.00 0.00 0.00 54 1011.8
20260502005638 58 126 0.0 2.0 0.00 0.00 0.00 53 1011.8
20260502005124 58 170 1.0 4.0 0.00 0.00 0.00 51 1011.7
20260502004614 58 231 0.0 6.0 0.00 0.00 0.00 51 1011.7
20260502004123 59 139 1.0 8.0 0.00 0.00 0.00 51 1011.9
20260502003631 59 231 3.0 8.0 0.00 0.00 0.00 51 1011.8
20260502003139 59 232 3.0 6.0 0.00 0.00 0.00 50 1011.6
20260502002627 59 255 1.0 7.0 0.00 0.00 0.00 51 1011.6
20260502002115 59 196 1.0 6.0 0.00 0.00 0.00 51 1011.7
20260502001620 59 92 0.0 4.0 0.00 0.00 0.00 52 1011.3
20260502001128 59 144 1.0 5.0 0.00 0.00 0.00 50 1011.2
20260502000617 59 113 1.0 8.0 0.00 0.00 0.00 50 1011.4
20260502000125 60 160 3.0 8.0 0.00 0.00 0.00 49 1011.3
20260501235654 60 187 2.0 7.0 0.00 0.00 0.00 49 1011.1
20260501235140 61 184 2.0 9.0 0.00 0.00 0.00 46 1010.9
20260501234629 62 155 3.0 10.0 0.00 0.00 0.00 44 1011.1
20260501234137 62 209 4.0 10.0 0.00 0.00 0.00 43 1011.0
20260501233624 62 176 2.0 8.0 0.00 0.00 0.00 41 1010.8
20260501233153 62 222 1.0 6.0 0.00 0.00 0.00 42 1010.7
20260501232621 63 170 1.0 5.0 0.00 0.00 0.00 41 1010.9
20260501232129 63 205 1.0 9.0 0.00 0.00 0.00 41 1010.8
20260501231619 63 255 1.0 9.0 0.00 0.00 0.00 41 1010.9
20260501231143 63 224 2.0 6.0 0.00 0.00 0.00 40 1011.0
20260501230631 63 254 2.0 5.0 0.00 0.00 0.00 41 1011.0
20260501230120 63 177 3.0 6.0 0.00 0.00 0.00 40 1011.0
20260501225628 63 100 0.0 6.0 0.00 0.00 0.00 39 1011.1
20260501225116 63 282 2.0 9.0 0.00 0.00 0.00 39 1010.9
20260501224645 63 200 4.0 11.0 0.00 0.00 0.00 39 1011.0
20260501224133 63 234 4.0 11.0 0.00 0.00 0.00 40 1011.0
20260501223622 63 197 3.0 11.0 0.00 0.00 0.00 39 1010.9
20260501223130 63 205 2.0 15.0 0.00 0.00 0.00 39 1011.0
20260501222618 64 99 5.0 15.0 0.00 0.00 0.00 37 1010.9
20260501222127 65 224 4.0 13.0 0.00 0.00 0.00 38 1010.8
20260501221615 65 149 2.0 18.0 0.00 0.00 0.00 38 1011.0
20260501221125 65 251 3.0 18.0 0.00 0.00 0.00 37 1011.1
20260501220615 65 202 3.0 11.0 0.00 0.00 0.00 36 1011.1
20260501220124 65 180 3.0 13.0 0.00 0.00 0.00 37 1011.1
20260501215632 65 311 3.0 13.0 0.00 0.00 0.00 36 1011.1
20260501215121 65 214 4.0 14.0 0.00 0.00 0.00 35 1011.2
20260501214631 65 145 2.0 14.0 0.00 0.00 0.00 34 1011.2
20260501214119 66 197 3.0 16.0 0.00 0.00 0.00 34 1011.2
20260501213628 66 305 4.0 16.0 0.00 0.00 0.00 34 1011.3
20260501213115 66 261 6.0 12.0 0.00 0.00 0.00 34 1011.3
20260501212619 66 297 4.0 11.0 0.00 0.00 0.00 33 1011.5
20260501212128 66 215 2.0 11.0 0.00 0.00 0.00 35 1011.4
20260501211616 66 259 4.0 12.0 0.00 0.00 0.00 34 1011.5
20260501211144 67 257 4.0 12.0 0.00 0.00 0.00 34 1011.4
20260501210652 67 239 2.0 12.0 0.00 0.00 0.00 34 1011.3
20260501210120 66 313 3.0 12.0 0.00 0.00 0.00 35 1011.4
20260501205629 67 252 2.0 9.0 0.00 0.00 0.00 36 1011.4
20260501205118 67 208 3.0 11.0 0.00 0.00 0.00 37 1011.2
20260501204626 67 225 4.0 15.0 0.00 0.00 0.00 35 1011.3